KE5OYL Weather Reports


Display with metric or nautical units.
time (UTC)temp
F
wind
direction
speed
MPH
gust
MPH
rain 1hr
in
rain 24hr
in
rain mn
in
humidity
%
barometer
mb
20260905174821 94 155 4.0 5.0 0.00 0.00 0.00 46 1014.5
20260905174317 95 282 4.0 6.0 0.00 0.00 0.00 46 1014.9
20260905173813 96 79 3.0 6.0 0.00 0.00 0.00 44 1015.1
20260905173309 94 26 1.0 3.0 0.00 0.00 0.00 46 1014.8
20260905172809 95 114 7.0 10.0 0.00 0.00 0.00 46 1015.1
20260905172307 94 179 4.0 7.0 0.00 0.00 0.00 47 1014.9
20260905171803 94 169 3.0 3.0 0.00 0.00 0.00 47 1015.2
20260905171300 94 71 4.0 8.0 0.00 0.00 0.00 47 1015.2
20260905170756 95 146 4.0 6.0 0.00 0.00 0.00 45 1015.2
20260905170251 95 8 1.0 2.0 0.00 0.00 0.00 46 1015.1
20260905165750 94 281 2.0 3.0 0.00 0.00 0.00 48 1015.3
20260905165246 94 127 4.0 5.0 0.00 0.00 0.00 47 1015.3
20260905164746 93 81 2.0 5.0 0.00 0.00 0.00 47 1015.4
20260905164240 95 345 3.0 5.0 0.00 0.00 0.00 49 1015.1
20260905163736 93 347 2.0 5.0 0.00 0.00 0.00 51 1015.4
20260905163233 94 132 1.0 3.0 0.00 0.00 0.00 52 1015.5
20260905162728 93 41 3.0 6.0 0.00 0.00 0.00 52 1015.2
20260905162228 91 8 2.0 5.0 0.00 0.00 0.00 54 1015.4
20260905161723 90 20 3.0 6.0 0.00 0.00 0.00 56 1015.4
20260905161221 91 17 3.0 3.0 0.00 0.00 0.00 54 1015.3
20260905160720 93 353 4.0 5.0 0.00 0.00 0.00 53 1015.4
20260905160220 91 6 1.0 7.0 0.00 0.00 0.00 55 1015.4
20260905155714 90 26 3.0 3.0 0.00 0.00 0.00 57 1015.2
20260905155213 91 6 3.0 3.0 0.00 0.00 0.00 57 1015.3
20260905154708 90 57 2.0 2.0 0.00 0.00 0.00 57 1015.3
20260905154204 89 314 4.0 6.0 0.00 0.00 0.00 59 1015.6
20260905153659 91 294 3.0 3.0 0.00 0.00 0.00 58 1015.4
20260905153154 90 8 3.0 3.0 0.00 0.00 0.00 59 1015.6
20260905152649 89 353 3.0 6.0 0.00 0.00 0.00 61 1015.4
20260905152144 89 225 5.0 6.0 0.00 0.00 0.00 61 1015.6
20260905151639 89 32 0.0 3.0 0.00 0.00 0.00 61 1015.3
20260905151134 88 313 3.0 6.0 0.00 0.00 0.00 63 1015.4
20260905150629 87 343 1.0 6.0 0.00 0.00 0.00 65 1015.4
20260905150128 88 258 7.0 8.0 0.00 0.00 0.00 63 1015.2
20260905145626 87 356 1.0 3.0 0.00 0.00 0.00 66 1015.1
20260905145125 88 342 1.0 6.0 0.00 0.00 0.00 65 1015.2
20260905144620 87 243 4.0 7.0 0.00 0.00 0.00 67 1015.4
20260905144120 87 91 3.0 3.0 0.00 0.00 0.00 65 1015.2
20260905143614 87 34 1.0 5.0 0.00 0.00 0.00 66 1015.4
20260905143109 87 161 3.0 5.0 0.00 0.00 0.00 67 1015.3
20260905142608 85 8 0.0 3.0 0.00 0.00 0.00 69 1015.2
20260905142102 85 236 3.0 5.0 0.00 0.00 0.00 70 1015.4
20260905141601 85 346 2.0 5.0 0.00 0.00 0.00 70 1015.5
20260905141058 84 2 0.0 2.0 0.00 0.00 0.00 70 1015.2
20260905140553 84 331 2.0 3.0 0.00 0.00 0.00 70 1015.2
20260905140052 84 258 3.0 5.0 0.00 0.00 0.00 71 1015.0
20260905135548 84 286 2.0 2.0 0.00 0.00 0.00 70 1015.1
20260905135048 84 247 3.0 5.0 0.00 0.00 0.00 71 1015.4
20260905134543 84 241 3.0 5.0 0.00 0.00 0.00 70 1015.3
20260905134041 84 24 1.0 2.0 0.00 0.00 0.00 70 1015.1
20260905133536 84 324 2.0 3.0 0.00 0.00 0.00 71 1015.2
20260905133031 84 284 2.0 3.0 0.00 0.00 0.00 70 1015.1
20260905132531 83 34 1.0 2.0 0.00 0.00 0.00 71 1015.1
20260905132026 84 7 1.0 1.0 0.00 0.00 0.00 71 1015.1
20260905131521 83 56 1.0 3.0 0.00 0.00 0.00 72 1014.9
20260905131016 84 136 2.0 2.0 0.00 0.00 0.00 71 1015.1
20260905130515 83 17 0.0 1.0 0.00 0.00 0.00 72 1014.8
20260905130011 81 359 1.0 2.0 0.00 0.00 0.00 74 1014.6
20260905125505 81 343 2.0 2.0 0.00 0.00 0.00 74 1014.7
20260905125000 81 73 2.0 3.0 0.00 0.00 0.00 74 1014.7
20260905124457 81 34 2.0 2.0 0.00 0.00 0.00 75 1014.6
20260905123952 81 34 2.0 2.0 0.00 0.00 0.00 75 1014.7
20260905123449 81 54 3.0 3.0 0.00 0.00 0.00 75 1014.7
20260905122948 81 93 2.0 3.0 0.00 0.00 0.00 75 1014.6
20260905122443 81 63 1.0 2.0 0.00 0.00 0.00 75 1014.5
20260905121938 81 42 1.0 2.0 0.00 0.00 0.00 74 1014.6
20260905121434 81 38 1.0 3.0 0.00 0.00 0.00 74 1014.5
20260905120933 81 39 1.0 2.0 0.00 0.00 0.00 74 1014.5
20260905120428 81 35 1.0 2.0 0.00 0.00 0.00 75 1014.5
20260905115923 81 70 2.0 2.0 0.00 0.00 0.00 75 1014.6
20260905115422 81 35 2.0 3.0 0.00 0.00 0.00 74 1014.5
20260905114917 82 36 1.0 3.0 0.00 0.00 0.00 74 1014.7
20260905114417 82 51 1.0 3.0 0.00 0.00 0.00 74 1014.4
20260905113916 82 14 1.0 1.0 0.00 0.00 0.00 74 1014.4
20260905113411 82 323 1.0 2.0 0.00 0.00 0.00 74 1014.5
20260905112907 82 259 3.0 3.0 0.00 0.00 0.00 74 1014.5
20260905112402 82 260 4.0 5.0 0.00 0.00 0.00 74 1014.4
20260905111856 82 334 2.0 2.0 0.00 0.00 0.00 74 1014.5
20260905111351 82 286 4.0 6.0 0.00 0.00 0.00 74 1014.3
20260905110850 82 319 2.0 5.0 0.00 0.00 0.00 73 1014.3
20260905110344 82 310 2.0 3.0 0.00 0.00 0.00 73 1014.4
20260905105839 82 258 3.0 3.0 0.00 0.00 0.00 72 1014.4
20260905105339 83 285 3.0 5.0 0.00 0.00 0.00 72 1014.4
20260905104833 83 261 4.0 6.0 0.00 0.00 0.00 72 1014.4
20260905104330 82 293 4.0 5.0 0.00 0.00 0.00 72 1014.2
20260905103829 82 330 1.0 3.0 0.00 0.00 0.00 72 1014.1
20260905103325 83 232 3.0 3.0 0.00 0.00 0.00 71 1014.3
20260905102821 83 213 2.0 3.0 0.00 0.00 0.00 71 1014.4
20260905102317 83 269 3.0 3.0 0.00 0.00 0.00 71 1014.3
20260905101817 83 181 2.0 3.0 0.00 0.00 0.00 71 1014.3
20260905101315 83 307 2.0 2.0 0.00 0.00 0.00 70 1014.2
20260905100809 83 229 4.0 5.0 0.00 0.00 0.00 70 1014.1
20260905100306 83 188 3.0 3.0 0.00 0.00 0.00 70 1013.9
20260905095805 83 235 2.0 5.0 0.00 0.00 0.00 70 1013.9
20260905095259 83 322 2.0 3.0 0.00 0.00 0.00 70 1014.1
20260905094754 83 330 1.0 3.0 0.00 0.00 0.00 70 1014.4
20260905094249 83 120 1.0 2.0 0.00 0.00 0.00 69 1014.3
20260905093748 83 352 0.0 3.0 0.00 0.00 0.00 69 1014.2
20260905093244 83 17 0.0 2.0 0.00 0.00 0.00 69 1014.0
20260905092739 83 19 1.0 2.0 0.00 0.00 0.00 69 1014.0
20260905092234 83 196 4.0 6.0 0.00 0.00 0.00 69 1014.1
20260905091729 83 230 4.0 5.0 0.00 0.00 0.00 68 1014.1
20260905091224 83 95 2.0 3.0 0.00 0.00 0.00 68 1014.1
20260905090723 83 206 3.0 5.0 0.00 0.00 0.00 68 1014.2
20260905090219 83 228 3.0 3.0 0.00 0.00 0.00 67 1014.1
20260905085718 84 211 3.0 7.0 0.00 0.00 0.00 67 1014.0
20260905085212 84 251 3.0 6.0 0.00 0.00 0.00 66 1013.8
20260905084707 84 269 3.0 5.0 0.00 0.00 0.00 66 1013.8
20260905084207 84 318 2.0 6.0 0.00 0.00 0.00 66 1013.8
20260905083701 84 334 1.0 5.0 0.00 0.00 0.00 66 1013.7
20260905083158 84 283 4.0 6.0 0.00 0.00 0.00 65 1013.7
20260905082654 84 314 2.0 5.0 0.00 0.00 0.00 65 1013.9
20260905082148 84 171 5.0 6.0 0.00 0.00 0.00 66 1013.8
20260905081643 84 145 2.0 5.0 0.00 0.00 0.00 67 1013.8
20260905081138 84 215 3.0 5.0 0.00 0.00 0.00 67 1013.7
20260905080633 84 235 4.0 5.0 0.00 0.00 0.00 67 1013.7
20260905080127 84 214 4.0 5.0 0.00 0.00 0.00 67 1013.6
20260905075626 84 202 3.0 5.0 0.00 0.00 0.00 66 1013.8
20260905075126 85 177 3.0 3.0 0.00 0.00 0.00 65 1013.6
20260905074625 85 269 2.0 3.0 0.00 0.00 0.00 65 1013.8
20260905074121 85 355 1.0 3.0 0.00 0.00 0.00 64 1013.8
20260905073616 85 301 1.0 3.0 0.00 0.00 0.00 65 1013.8
20260905073112 85 183 2.0 6.0 0.00 0.00 0.00 64 1013.9
20260905072611 85 150 1.0 2.0 0.00 0.00 0.00 64 1014.0
20260905072106 85 210 5.0 6.0 0.00 0.00 0.00 64 1013.9
20260905071603 85 231 4.0 6.0 0.00 0.00 0.00 64 1014.0
20260905071103 86 209 3.0 7.0 0.00 0.00 0.00 64 1014.1
20260905070558 86 146 2.0 7.0 0.00 0.00 0.00 64 1014.1
20260905070054 86 256 4.0 7.0 0.00 0.00 0.00 63 1014.2
20260905065552 86 231 5.0 6.0 0.00 0.00 0.00 63 1014.1
20260905065047 86 271 2.0 5.0 0.00 0.00 0.00 63 1014.2
20260905064542 86 192 2.0 3.0 0.00 0.00 0.00 63 1014.2
20260905064038 86 282 2.0 6.0 0.00 0.00 0.00 63 1014.3
20260905063536 86 201 4.0 5.0 0.00 0.00 0.00 63 1014.2
20260905063033 86 243 6.0 7.0 0.00 0.00 0.00 63 1014.0
20260905062532 86 192 5.0 6.0 0.00 0.00 0.00 63 1014.3
20260905062027 86 112 5.0 7.0 0.00 0.00 0.00 63 1014.2
20260905061523 86 167 3.0 6.0 0.00 0.00 0.00 64 1014.2
20260905061021 86 227 3.0 6.0 0.00 0.00 0.00 63 1014.2
20260905060518 87 190 5.0 7.0 0.00 0.00 0.00 63 1014.2
20260905060013 87 220 5.0 8.0 0.00 0.00 0.00 63 1014.5
20260905055512 87 318 2.0 3.0 0.00 0.00 0.00 63 1014.1
20260905055007 87 187 3.0 6.0 0.00 0.00 0.00 63 1014.3
20260905054503 87 241 5.0 6.0 0.00 0.00 0.00 63 1014.3
20260905053957 87 187 5.0 7.0 0.00 0.00 0.00 63 1014.1
20260905053452 87 258 2.0 8.0 0.00 0.00 0.00 63 1013.9
20260905052948 87 111 2.0 3.0 0.00 0.00 0.00 62 1014.0
20260905052447 87 229 3.0 5.0 0.00 0.00 0.00 62 1014.0
20260905051947 87 288 3.0 3.0 0.00 0.00 0.00 62 1014.0
20260905051442 87 247 2.0 5.0 0.00 0.00 0.00 62 1013.7
20260905050939 88 173 3.0 5.0 0.00 0.00 0.00 62 1013.8
20260905050434 88 206 5.0 6.0 0.00 0.00 0.00 61 1014.0
20260905045931 88 206 3.0 3.0 0.00 0.00 0.00 61 1014.0
20260905045426 88 61 1.0 3.0 0.00 0.00 0.00 61 1014.0
20260905044921 88 219 4.0 5.0 0.00 0.00 0.00 60 1013.9
20260905044416 88 224 4.0 5.0 0.00 0.00 0.00 61 1014.0
20260905043915 88 337 1.0 3.0 0.00 0.00 0.00 60 1013.9
20260905043410 88 147 4.0 6.0 0.00 0.00 0.00 60 1013.9
20260905042910 88 140 5.0 6.0 0.00 0.00 0.00 60 1014.0
20260905042404 88 209 5.0 8.0 0.00 0.00 0.00 60 1013.7
20260905041859 88 231 3.0 7.0 0.00 0.00 0.00 60 1013.7
20260905041355 89 222 6.0 8.0 0.00 0.00 0.00 59 1013.7
20260905040850 89 300 2.0 2.0 0.00 0.00 0.00 59 1013.8
20260905040349 89 342 2.0 6.0 0.00 0.00 0.00 59 1013.8
20260905035848 89 205 5.0 7.0 0.00 0.00 0.00 59 1013.9
20260905035344 89 143 2.0 7.0 0.00 0.00 0.00 58 1013.9
20260905034840 89 207 3.0 6.0 0.00 0.00 0.00 58 1014.0
20260905034336 89 313 2.0 8.0 0.00 0.00 0.00 58 1013.9
20260905033834 90 317 2.0 7.0 0.00 0.00 0.00 57 1013.9
20260905033330 89 167 3.0 6.0 0.00 0.00 0.00 57 1014.1
20260905032829 90 187 2.0 2.0 0.00 0.00 0.00 56 1014.0
20260905032325 90 195 3.0 7.0 0.00 0.00 0.00 55 1014.0
20260905031820 90 184 3.0 8.0 0.00 0.00 0.00 55 1013.8
20260905031316 90 97 3.0 7.0 0.00 0.00 0.00 54 1014.1
20260905030810 91 144 5.0 7.0 0.00 0.00 0.00 54 1013.6
20260905030306 91 150 4.0 7.0 0.00 0.00 0.00 53 1013.6
20260905025805 91 134 4.0 7.0 0.00 0.00 0.00 53 1013.6
20260905025301 91 158 6.0 8.0 0.00 0.00 0.00 52 1013.8
20260905024757 91 166 4.0 5.0 0.00 0.00 0.00 51 1013.5
20260905024252 91 122 3.0 6.0 0.00 0.00 0.00 51 1013.6
20260905023747 91 125 3.0 5.0 0.00 0.00 0.00 51 1013.3
20260905023242 91 87 2.0 5.0 0.00 0.00 0.00 50 1013.3
20260905022741 91 143 5.0 6.0 0.00 0.00 0.00 50 1013.3
20260905022237 91 126 3.0 6.0 0.00 0.00 0.00 50 1013.1
20260905021737 91 49 3.0 5.0 0.00 0.00 0.00 50 1013.1
20260905021231 92 74 2.0 7.0 0.00 0.00 0.00 50 1012.9
20260905020726 92 138 3.0 7.0 0.00 0.00 0.00 50 1013.1
20260905020222 92 44 3.0 6.0 0.00 0.00 0.00 49 1012.8
20260905015720 92 196 5.0 8.0 0.00 0.00 0.00 49 1012.8
20260905015215 92 140 6.0 8.0 0.00 0.00 0.00 49 1012.8
20260905014713 92 103 6.0 8.0 0.00 0.00 0.00 49 1012.6
20260905014209 93 87 3.0 3.0 0.00 0.00 0.00 48 1012.7
20260905013705 93 189 3.0 5.0 0.00 0.00 0.00 48 1012.4
20260905013201 93 47 3.0 6.0 0.00 0.00 0.00 48 1012.5
20260905012656 93 121 4.0 6.0 0.00 0.00 0.00 47 1012.4
20260905012152 94 193 3.0 6.0 0.00 0.00 0.00 47 1012.6
20260905011648 94 34 2.0 7.0 0.00 0.00 0.00 47 1012.2
20260905011144 94 2 1.0 5.0 0.00 0.00 0.00 46 1012.2
20260905010638 94 143 3.0 7.0 0.00 0.00 0.00 46 1012.2
20260905010134 94 58 5.0 8.0 0.00 0.00 0.00 46 1012.2
20260905005630 94 149 3.0 7.0 0.00 0.00 0.00 45 1012.2
20260905005126 94 82 4.0 6.0 0.00 0.00 0.00 45 1012.2
20260905004625 94 124 5.0 6.0 0.00 0.00 0.00 45 1011.9
20260905004121 94 79 6.0 8.0 0.00 0.00 0.00 45 1012.1
20260905003616 95 137 5.0 9.0 0.00 0.00 0.00 45 1012.2
20260905003112 95 123 5.0 7.0 0.00 0.00 0.00 44 1011.9
20260905002607 95 64 4.0 8.0 0.00 0.00 0.00 45 1011.8
20260905002102 95 161 6.0 9.0 0.00 0.00 0.00 44 1011.9
20260905001557 95 51 2.0 8.0 0.00 0.00 0.00 45 1011.9
20260905001051 95 149 6.0 11.0 0.00 0.00 0.00 45 1011.9
20260905000546 96 140 10.0 14.0 0.00 0.00 0.00 45 1012.0
20260905000042 96 15 5.0 9.0 0.00 0.00 0.00 44 1012.0
20260904235537 96 156 6.0 8.0 0.00 0.00 0.00 44 1011.8
20260904235037 96 177 6.0 10.0 0.00 0.00 0.00 45 1011.8
20260904234536 96 129 6.0 9.0 0.00 0.00 0.00 45 1011.6
20260904234033 96 173 6.0 11.0 0.00 0.00 0.00 45 1011.5
20260904233527 97 122 6.0 8.0 0.00 0.00 0.00 45 1011.5
20260904233024 97 215 3.0 8.0 0.00 0.00 0.00 45 1011.8
20260904232520 96 57 2.0 9.0 0.00 0.00 0.00 45 1011.6
20260904232017 97 191 7.0 9.0 0.00 0.00 0.00 45 1011.6
20260904231512 97 171 4.0 8.0 0.00 0.00 0.00 44 1011.4
20260904231007 97 115 7.0 13.0 0.00 0.00 0.00 45 1011.8
20260904230506 97 152 5.0 10.0 0.00 0.00 0.00 44 1011.2
20260904230001 97 133 5.0 8.0 0.00 0.00 0.00 44 1011.6
20260904225458 98 131 3.0 6.0 0.00 0.00 0.00 43 1011.8
20260904224952 98 154 5.0 8.0 0.00 0.00 0.00 44 1011.6
20260904224448 97 125 7.0 14.0 0.00 0.00 0.00 44 1011.8
20260904223948 97 213 9.0 11.0 0.00 0.00 0.00 44 1011.4
20260904223447 97 140 8.0 9.0 0.00 0.00 0.00 44 1011.5
20260904222943 98 36 3.0 7.0 0.00 0.00 0.00 43 1011.8
20260904222439 98 156 4.0 7.0 0.00 0.00 0.00 44 1011.8
20260904221938 98 72 7.0 13.0 0.00 0.00 0.00 45 1011.9
20260904221433 97 84 5.0 10.0 0.00 0.00 0.00 45 1011.8
20260904220929 97 90 3.0 8.0 0.00 0.00 0.00 45 1011.6
20260904220428 98 100 7.0 11.0 0.00 0.00 0.00 45 1011.6
20260904215923 98 66 4.0 7.0 0.00 0.00 0.00 43 1011.6
20260904215418 98 325 3.0 9.0 0.00 0.00 0.00 43 1011.8
20260904214914 97 101 6.0 8.0 0.00 0.00 0.00 45 1012.1
20260904214410 99 135 7.0 8.0 0.00 0.00 0.00 43 1011.9
20260904213909 98 53 5.0 7.0 0.00 0.00 0.00 43 1011.9
20260904213403 99 96 3.0 5.0 0.00 0.00 0.00 42 1012.1
20260904212859 98 224 4.0 6.0 0.00 0.00 0.00 42 1012.0
20260904212359 98 107 3.0 9.0 0.00 0.00 0.00 42 1012.3
20260904211855 98 95 5.0 11.0 0.00 0.00 0.00 43 1012.4
20260904211349 99 126 4.0 8.0 0.00 0.00 0.00 42 1012.3
20260904210844 99 171 6.0 9.0 0.00 0.00 0.00 41 1012.3
20260904210343 99 169 7.0 8.0 0.00 0.00 0.00 40 1012.3
20260904205840 98 69 6.0 11.0 0.00 0.00 0.00 42 1012.5
20260904205336 99 153 4.0 9.0 0.00 0.00 0.00 41 1012.5
20260904204832 99 199 3.0 10.0 0.00 0.00 0.00 41 1012.7
20260904204328 98 199 10.0 13.0 0.00 0.00 0.00 42 1012.4
20260904203824 98 201 5.0 9.0 0.00 0.00 0.00 41 1013.0
20260904203320 98 184 9.0 11.0 0.00 0.00 0.00 41 1012.8
20260904202815 98 207 5.0 10.0 0.00 0.00 0.00 42 1012.8
20260904202312 98 173 5.0 8.0 0.00 0.00 0.00 42 1012.8
20260904201807 98 92 6.0 14.0 0.00 0.00 0.00 42 1012.9
20260904201301 97 355 0.0 5.0 0.00 0.00 0.00 42 1012.9
20260904200756 98 118 9.0 10.0 0.00 0.00 0.00 44 1012.8
20260904200250 97 159 5.0 10.0 0.00 0.00 0.00 44 1013.1
20260904195749 98 152 6.0 8.0 0.00 0.00 0.00 44 1013.2
20260904195248 97 269 3.0 10.0 0.00 0.00 0.00 44 1013.3
20260904194743 97 209 9.0 13.0 0.00 0.00 0.00 44 1013.3
20260904194242 97 175 7.0 9.0 0.00 0.00 0.00 43 1013.5
20260904193738 97 205 9.0 13.0 0.00 0.00 0.00 44 1013.7
20260904193233 96 214 5.0 8.0 0.00 0.00 0.00 44 1013.4
20260904192728 96 257 5.0 8.0 0.00 0.00 0.00 44 1013.7
20260904192224 96 148 6.0 8.0 0.00 0.00 0.00 44 1013.8
20260904191721 96 166 5.0 10.0 0.00 0.00 0.00 44 1013.9
20260904191216 97 194 9.0 11.0 0.00 0.00 0.00 43 1013.8
20260904190713 97 150 6.0 8.0 0.00 0.00 0.00 44 1013.9
20260904190208 96 185 6.0 9.0 0.00 0.00 0.00 44 1013.8
20260904185705 96 188 6.0 7.0 0.00 0.00 0.00 44 1013.9
20260904185159 96 44 4.0 9.0 0.00 0.00 0.00 45 1014.0
20260904184658 96 204 9.0 11.0 0.00 0.00 0.00 46 1014.2
20260904184154 95 142 5.0 7.0 0.00 0.00 0.00 46 1014.1
20260904183649 95 61 3.0 8.0 0.00 0.00 0.00 47 1014.4
20260904183143 95 212 6.0 8.0 0.00 0.00 0.00 46 1014.5
20260904182639 95 16 4.0 14.0 0.00 0.00 0.00 47 1014.4
20260904182133 95 184 5.0 8.0 0.00 0.00 0.00 45 1014.5
20260904181630 95 92 3.0 13.0 0.00 0.00 0.00 46 1014.6
20260904181124 95 155 5.0 13.0 0.00 0.00 0.00 45 1014.5
20260904180619 95 130 8.0 11.0 0.00 0.00 0.00 44 1014.7
20260904180115 95 113 4.0 6.0 0.00 0.00 0.00 46 1014.7
20260904175613 94 268 5.0 11.0 0.00 0.00 0.00 48 1014.9
20260904175112 94 167 4.0 6.0 0.00 0.00 0.00 49 1014.8